Powrót do katalogu

NOAA 17 DEB

AktywnyPO
NORAD 48713·DEBRIS·🇺🇸 United States

Wystrzelony Jun 24, 2002 z Vandenberg Space Force Base

Loading…

Następne Przeloty (najbliższe 24 godziny)

TLE

ŚwieżeSource: Space-Track

Epoka: Sep 14, 2026, 09:21 UTC

1 48713U 02032AW  26257.39011350  .00060904  00000-0  25947-2 0  9992
2 48713  98.9816  53.3822 0024321 356.6453   3.4612 15.22461508293580

Śledź NOAA 17 DEB w czasie rzeczywistym z AllMySat

Download on the App Store